Long Beach Weather Center

Moon Phase Calendar



Online Cameras

 


      

Current Conditions in Long Beach
9/19/2021 9:22:14 PM

68°F
Feels Like 68
Clear
Humidity
78%
Pressure
30.21"
Wind
1 mph (SSW)
Dew Point
60°F
UV Index
0/10 (Low)
Visibility
6 mi

Hourly Forecast

Date & Time Sun, Sep 19
9:00 PM
Sun, Sep 19
10:00 PM
Sun, Sep 19
11:00 PM
Mon, Sep 20
12:00 AM
Mon, Sep 20
1:00 AM
Mon, Sep 20
2:00 AM
Mon, Sep 20
3:00 AM
Mon, Sep 20
4:00 AM
Mon, Sep 20
5:00 AM
Mon, Sep 20
6:00 AM
Mon, Sep 20
7:00 AM
Mon, Sep 20
8:00 AM
Mon, Sep 20
9:00 AM
Mon, Sep 20
10:00 AM
Mon, Sep 20
11:00 AM
Mon, Sep 20
12:00 PM
Mon, Sep 20
1:00 PM
Mon, Sep 20
2:00 PM
Mon, Sep 20
3:00 PM
Mon, Sep 20
4:00 PM
Mon, Sep 20
5:00 PM
Mon, Sep 20
6:00 PM
Mon, Sep 20
7:00 PM
Mon, Sep 20
8:00 PM
Mon, Sep 20
9:00 PM
Mon, Sep 20
10:00 PM
Mon, Sep 20
11:00 PM
Tue, Sep 21
12:00 AM
Tue, Sep 21
1:00 AM
Tue, Sep 21
2:00 AM
Tue, Sep 21
3:00 AM
Tue, Sep 21
4:00 AM
Tue, Sep 21
5:00 AM
Tue, Sep 21
6:00 AM
Tue, Sep 21
7:00 AM
Tue, Sep 21
8:00 AM
Tue, Sep 21
9:00 AM
Tue, Sep 21
10:00 AM
Tue, Sep 21
11:00 AM
Tue, Sep 21
12:00 PM
Tue, Sep 21
1:00 PM
Tue, Sep 21
2:00 PM
Tue, Sep 21
3:00 PM
Tue, Sep 21
4:00 PM
Tue, Sep 21
5:00 PM
Tue, Sep 21
6:00 PM
Tue, Sep 21
7:00 PM
Tue, Sep 21
8:00 PM
Condition
Clear

Clear

Clear

Clear

Clear

Clear

Clear

Clear

Clear

Clear

Clear

Clear

Clear

Clear

Clear

Clear

Clear

Clear

Clear

Clear

Clear

Clear

Clouds

Clouds

Clear

Clear

Clear

Clear

Clouds

Clouds

Clouds

Clouds

Clouds

Clouds

Clouds

Clouds

Clouds

Clouds

Clouds

Clouds

Clouds

Clouds

Clouds

Clouds

Clouds

Clouds

Clouds

Clouds
Temperature 68°F68°F68°F69°F69°F69°F69°F69°F68°F68°F68°F69°F69°F70°F71°F72°F72°F72°F72°F72°F71°F70°F70°F69°F69°F69°F69°F69°F69°F68°F68°F68°F68°F68°F68°F69°F70°F71°F73°F73°F74°F74°F74°F74°F73°F73°F72°F72°F
Feels Like 68°F68°F68°F68°F68°F68°F68°F68°F68°F68°F67°F68°F69°F70°F70°F71°F71°F71°F71°F71°F70°F70°F69°F69°F69°F68°F68°F68°F68°F68°F68°F68°F68°F68°F68°F69°F70°F71°F72°F73°F74°F74°F74°F74°F73°F73°F72°F72°F
Cloudiness 1%1%1%0%0%0%0%0%0%0%0%0%0%0%0%1%2%3%7%10%8%9%13%12%6%6%9%10%12%13%43%40%31%25%27%30%98%99%99%99%98%98%69%65%67%73%79%81%
Visibility 6 mi6 mi6 mi6 mi6 mi6 mi6 mi6 mi6 mi6 mi6 mi6 mi6 mi6 mi6 mi6 mi6 mi6 mi6 mi6 mi6 mi6 mi6 mi6 mi6 mi6 mi6 mi6 mi6 mi6 mi6 mi6 mi6 mi6 mi6 mi6 mi6 mi6 mi6 mi6 mi6 mi6 mi6 mi6 mi6 mi6 mi6 mi6 mi
Precipitation 0%0%0%0%0%0%0%0%0%0%0%0%0%0%0%0%0%0%0%0%0%0%0%0%0%0%0%0%0%0%0%0%0%0%0%0%0%0%0%0%0%0%0%0%0%0%0%0%
Humidity 78%74%70%68%65%62%62%61%61%61%61%60%59%57%56%54%53%53%53%53%55%56%59%60%61%62%62%63%63%64%63%63%64%67%71%73%71%66%60%61%62%63%64%66%69%71%74%77%
Dew Point 60°F59°F58°F58°F57°F55°F55°F55°F54°F54°F54°F54°F54°F54°F54°F54°F53°F53°F53°F53°F54°F54°F54°F55°F55°F55°F55°F55°F56°F56°F55°F55°F56°F57°F58°F60°F60°F59°F58°F58°F59°F60°F61°F61°F62°F62°F63°F64°F
Pressure 30.21"30.21"30.21"30.24"30.24"30.27"30.27"30.27"30.27"30.27"30.3"30.33"30.33"30.36"30.36"30.36"30.36"30.33"30.33"30.33"30.33"30.33"30.33"30.36"30.39"30.39"30.39"30.39"30.39"30.36"30.36"30.36"30.36"30.36"30.36"30.36"30.36"30.36"30.36"30.36"30.33"30.33"30.33"30.3"30.3"30.3"30.3"30.3"
Wind Speed 4.6 mph3.8 mph3.5 mph3.9 mph3.4 mph3.8 mph5.1 mph4.4 mph4.6 mph4.3 mph5.1 mph6.7 mph8.2 mph8.5 mph9.7 mph10.4 mph11 mph11.4 mph12.2 mph12.8 mph13.2 mph13.6 mph14.1 mph13.4 mph13.2 mph12.1 mph10.7 mph10 mph10.3 mph11.4 mph10.6 mph9.1 mph8.9 mph9.4 mph9 mph9 mph7.9 mph7.6 mph9.4 mph8.6 mph8.5 mph9.9 mph11.9 mph14 mph13.3 mph13.5 mph12.2 mph11.7 mph
Wind
Direction
126°
SE
121°
ESE
125°
SE
120°
ESE
131°
SE
129°
SE
124°
SE
125°
SE
116°
ESE
109°
ESE
98°
E
96°
E
107°
ESE
109°
ESE
112°
ESE
114°
ESE
117°
ESE
117°
ESE
118°
ESE
118°
ESE
117°
ESE
118°
ESE
115°
ESE
118°
ESE
123°
ESE
127°
SE
134°
SE
135°
SE
124°
SE
117°
ESE
118°
ESE
117°
ESE
110°
ESE
105°
ESE
93°
E
84°
E
97°
E
133°
SE
150°
SSE
145°
SE
132°
SE
124°
SE
137°
SE
139°
SE
136°
SE
129°
SE
125°
SE
122°
ESE

Daily Forecast

Date High Low Precip. Humidity
Today
Sep 19

Clear
76 °F
68 °F
0%
43%
Monday
Sep 20

Clear
72 °F
68 °F
0%
54%
Tuesday
Sep 21

Clouds
74 °F
68 °F
0%
61%
Wednesday
Sep 22

Rain
75 °F
72 °F
97%
81%
Thursday
Sep 23

Rain
73 °F
65 °F
100%
94%
Friday
Sep 24

Clear
70 °F
61 °F
48%
48%
Saturday
Sep 25

Clear
67 °F
61 °F
0%
52%
Sunday
Sep 26

Rain
71 °F
64 °F
25%
48%
Monday
Sep 27

Clear
71 °F
62 °F
12%
59%
Tuesday
Sep 28

Clouds
74 °F
64 °F
0%
50%
Wednesday
Sep 29

Clear
73 °F
66 °F
0%
59%
Thursday
Sep 30

Clear
71 °F
63 °F
0%
52%
Friday
Oct 1

Clear
72 °F
67 °F
0%
62%
Saturday
Oct 2

Clouds
74 °F
68 °F
0%
75%
Sunday
Oct 3

Clouds
73 °F
69 °F
0%
69%
Monday
Oct 4

Clear
72 °F
68 °F
0%
69%

Temperature 8-14 Day Outlook



Precipitation 8-14 Day Outlook




Quick Links
Long Beach News
Long Beach Photos
Long Beach Videos




About Us
Contact Us
Site Map
Search Site
Advertise With Us
   
LongBeach.USCoast.info
THE LONG BEACH WEBSITE

Copyright 2021, Coastal Town
Privacy    |    Legal